[[{"header":{"parameterUnit":"m.s-1","parameterCategory":1,"la1":30.2991,"la2":30.254,"lo1":-89.0895,"lo2":-89.0444,"dy":0.0017,"dx":0.0017,"nx":28,"ny":28,"refTime":"2024-04-05T09:00:00:Z","depth":0,"parameterNumber":2,"parameterNumberName":"U-component_of_WINDS"},"data":[0,0,0,0,0,0,0,0,0,0,0,0,0,0,0,0,0,0,0,0,0,0,0,0,0,0,0,0,0,0,0,0,0,0,0,0,0,0,0,0,0,0,0,0,0,0,0,0,0,0,0,0,0,0,0,0,0,0,3.7242,3.7243,0,3.737,3.7372,3.7373,3.7303,3.7299,3.7296,3.7293,3.7426,3.7432,3.7439,0,0,0,0,0,0,0,0,0,0,0,0,0,3.694,3.6946,3.7242,3.7244,3.7245,3.737,3.7372,3.7373,3.7304,3.7299,3.7295,3.7291,3.7424,3.7432,3.744,0,0,0,0,0,0,0,0,0,0,0,0,0,3.707,3.6948,3.7242,3.7225,3.7225,3.737,3.7372,3.7374,3.7304,3.7299,3.7294,3.7289,3.7421,3.7431,3.7441,3.7609,0,0,3.7472,3.7477,0,0,0,0,0,0,0,0,3.7063,3.7081,3.7226,3.7227,3.7227,3.7315,3.7314,3.7453,3.7306,3.7274,3.7293,3.7286,3.7393,3.7406,3.7441,3.7616,3.7621,3.7473,3.7479,3.7484,3.7487,0,0,0,0,0,0,0,3.7054,3.7075,3.7293,3.7228,3.7229,3.7213,3.7225,3.734,3.7362,3.7277,3.7272,3.7288,3.7393,3.7432,3.7444,3.7623,3.7473,3.7482,3.7488,3.7492,3.7945,3.7951,0,0,0,0,0,0,3.7045,3.7068,3.7289,3.7296,3.713,3.7222,3.7236,3.7292,3.736,3.7366,3.7292,3.7284,3.7417,3.7432,3.7448,3.7652,3.7484,3.7493,3.7499,3.7939,3.7946,3.7953,0,0,0,0,0,0,3.7039,3.7066,3.7283,3.7181,3.7208,3.7233,3.7296,3.7297,3.7336,3.7372,3.7376,3.7328,3.7413,3.7434,3.757,3.7655,3.7498,3.7507,3.7932,3.7941,3.7949,3.8059,0,0,0,0,0,0,3.7031,3.7064,3.7127,3.7183,3.7213,3.7403,3.7301,3.7304,3.7354,3.7344,3.7407,3.7412,3.7411,3.7555,3.758,3.7666,3.7515,3.7925,3.7936,3.7947,3.8048,3.807,3.8089,0,0,0,0,0,3.702,3.7153,3.7131,3.7158,3.7293,3.7408,3.7425,3.742,3.7361,3.7426,3.7449,3.741,3.7642,3.757,3.7598,3.7688,3.7919,3.7933,3.7946,3.8038,3.8066,3.8089,0,0,0,0,0,0,3.7107,3.716,3.7136,3.729,3.7345,3.7396,3.7477,3.7449,3.7522,3.751,3.7502,3.7517,3.7659,3.7687,3.7606,3.7856,3.7771,3.7791,3.7832,3.7859,3.7879,3.787,3.7524,0,0,0,0,0,3.7144,3.7231,3.7273,3.7406,3.7434,3.7451,3.7501,3.7493,3.7549,3.7572,3.7605,3.7662,3.7748,3.7805,3.7885,3.8051,3.8065,3.8127,3.8148,3.8165,3.8182,3.8274,3.8303,3.7996,3.7996,3.7996,0,0,3.7221,3.7261,3.7317,3.7424,3.7465,3.7558,3.7471,3.7572,3.7641,3.7587,3.7718,3.7745,3.7809,3.7961,3.803,3.7989,3.827,3.8182,3.8195,3.8203,3.8291,3.832,3.8345,3.8005,3.8004,3.8002,0,0,3.7409,3.7448,3.7563,3.7606,3.767,3.7681,3.7709,3.7764,3.778,3.7911,3.7874,3.7956,3.8103,3.8151,3.8194,3.8403,3.837,3.8429,3.8539,3.8628,3.8652,3.8674,3.875,3.8777,3.8446,3.8446,3.8446,0,3.7498,3.7634,3.7626,3.773,3.778,3.7735,3.7853,3.7896,3.7983,3.8019,3.7971,3.8157,3.8196,3.836,3.8411,3.8447,3.848,3.8422,3.8649,3.8671,3.8691,3.8763,3.8792,3.8453,3.8452,3.8452,3.8451,0,3.7741,3.7836,3.7922,3.8007,3.8066,3.8177,3.8186,3.8247,3.8234,3.825,3.8386,3.8432,3.8522,3.856,3.8548,3.8724,3.8696,3.865,3.8565,3.8727,3.8795,3.8822,3.8463,3.846,3.8458,3.8457,0,0,3.7987,3.8067,3.8099,3.8138,3.8205,3.828,3.8389,3.8477,3.853,3.8592,3.8685,3.8812,3.877,3.8819,3.8812,3.8891,3.9056,3.8835,3.8836,3.8876,3.9254,3.9289,3.9321,3.9034,3.904,3.9044,3.9249,0,3.818,3.8371,3.8367,3.8545,3.8634,3.8594,3.869,3.8743,3.8762,3.8841,3.8861,3.8952,3.8888,3.8918,3.8994,3.902,3.9132,3.9005,3.9122,3.9126,3.9108,3.9356,3.9394,3.9585,3.9275,3.9279,3.9283,0,3.8432,3.8503,3.8689,3.8745,3.8783,3.8869,3.895,3.9026,3.9086,3.9094,3.915,3.9132,3.9245,3.9157,3.9313,3.9227,3.9275,3.9295,3.9302,3.9314,3.9215,3.9376,3.9646,3.9675,3.9324,3.9321,3.9318,0,3.8594,3.8736,3.8866,3.8901,3.897,3.9031,3.9063,3.9118,3.9171,3.9243,3.9278,3.9362,3.9408,3.9475,3.948,3.9415,3.9639,3.955,3.965,3.965,3.9699,3.9696,3.9982,3.9729,3.9728,3.9728,3.9727,0,3.8812,3.8928,3.8941,3.9021,3.915,3.9146,3.9275,3.9301,3.935,3.9436,3.9407,3.9488,3.949,3.9574,3.9579,3.9709,3.9729,3.974,3.9741,3.9744,3.9743,3.9776,3.9763,3.9735,3.9734,3.9732,3.9731,0,3.9016,3.9028,3.9168,3.9222,3.9238,3.9332,3.9378,3.9456,3.9472,3.9581,3.9606,3.9632,3.973,3.9741,3.9855,3.9858,4.0016,4.0001,3.9995,3.9993,4.0093,4.0084,4.041,4.0454,4.0171,4.0174,4.0176,0,3.9154,3.9242,3.9306,3.9361,3.9396,3.9485,3.954,3.954,3.9599,3.9675,3.9743,3.9838,3.9913,4.0071,4.01,4.0188,4.0176,4.0284,4.0189,4.019,4.0179,4.0174,4.0184,4.0303,4.0306,4.0309,4.0311,0,3.9399,3.9401,3.9481,3.9564,3.9631,3.9696,3.9758,3.9805,3.9812,3.988,3.9979,4.0038,4.0154,4.0249,4.0335,4.0369,4.0343,4.034,4.0368,4.0373,4.0367,4.0373,4.0047,4.0333,4.0331,4.0329,4.0328,4.0327,3.9575,3.9653,3.971,3.9801,3.9847,3.9906,3.9981,4.0007,4.0089,4.0184,4.0179,4.0288,4.0348,4.0461,4.0501,4.0588,4.0553,4.0593,4.0603,4.0613,4.0624,4.0352,4.0604,4.0603,4.0603,4.0602,4.0602,0,3.982,3.9855,3.9939,4.0026,4.0098,4.0065,4.0132,4.0195,4.0291,4.0349,4.0424,4.0539,4.0631,4.0668,4.0759,4.0822,4.0812,4.0846,4.0841,4.085,4.065,4.0617,4.0852,4.0852,4.0852,4.0852,4.0852,4.0852,3.9956,4.0086,4.0096,4.0249,4.0283,4.039,4.0431,4.0486,4.0532,4.0661,4.0738,4.0761,4.0811,4.0906,4.0989,4.0998,4.1034,4.1073,4.1077,4.0889,4.0864,4.084,4.0809,4.1081,4.1081,4.127,4.1272,4.1273]},{"header":{"parameterUnit":"m.s-1","parameterCategory":1,"la1":30.2991,"la2":30.254,"lo1":-89.0895,"lo2":-89.0444,"dy":0.0017,"dx":0.0017,"nx":28,"ny":28,"refTime":"2024-04-05T09:00:00:Z","depth":0,"parameterNumber":3,"parameterNumberName":"V-component_of_WINDS"},"data":[0,0,0,0,0,0,0,0,0,0,0,0,0,0,0,0,0,0,0,0,0,0,0,0,0,0,0,0,0,0,0,0,0,0,0,0,0,0,0,0,0,0,0,0,0,0,0,0,0,0,0,0,0,0,0,0,0,0,-2.3503,-2.3503,0,-2.3592,-2.3593,-2.3594,-2.3612,-2.3611,-2.361,-2.361,-2.37,-2.3703,-2.3706,0,0,0,0,0,0,0,0,0,0,0,0,0,-2.3345,-2.3348,-2.3502,-2.3504,-2.3505,-2.3592,-2.3593,-2.3594,-2.3612,-2.3611,-2.361,-2.3609,-2.3699,-2.3702,-2.3706,0,0,0,0,0,0,0,0,0,0,0,0,0,-2.3422,-2.3349,-2.3502,-2.3524,-2.3527,-2.3592,-2.3593,-2.3595,-2.3612,-2.3611,-2.361,-2.3609,-2.3698,-2.3702,-2.3707,-2.3756,0,0,-2.3721,-2.3723,0,0,0,0,0,0,0,0,-2.3418,-2.3428,-2.352,-2.3523,-2.3526,-2.359,-2.3571,-2.3649,-2.3612,-2.358,-2.361,-2.3608,-2.3664,-2.3671,-2.369,-2.376,-2.3764,-2.3721,-2.3724,-2.3726,-2.3727,0,0,0,0,0,0,0,-2.3412,-2.3424,-2.3538,-2.3521,-2.3525,-2.3529,-2.3539,-2.3586,-2.3626,-2.3582,-2.3584,-2.3594,-2.3665,-2.3686,-2.3692,-2.3765,-2.3721,-2.3725,-2.3728,-2.373,-2.3879,-2.388,0,0,0,0,0,0,-2.3403,-2.3419,-2.3535,-2.3541,-2.3468,-2.3532,-2.3543,-2.357,-2.3626,-2.3634,-2.3595,-2.3595,-2.3678,-2.3687,-2.3696,-2.3756,-2.3726,-2.373,-2.3733,-2.3878,-2.388,-2.3881,0,0,0,0,0,0,-2.34,-2.3413,-2.3531,-2.348,-2.3496,-2.3536,-2.3566,-2.3573,-2.3593,-2.3636,-2.3643,-2.3608,-2.3678,-2.3689,-2.3741,-2.376,-2.3732,-2.3736,-2.3877,-2.3878,-2.388,-2.3878,0,0,0,0,0,0,-2.3395,-2.3412,-2.3431,-2.3481,-2.3498,-2.3575,-2.3568,-2.3575,-2.3601,-2.3601,-2.365,-2.3657,-2.3678,-2.3734,-2.3745,-2.3766,-2.374,-2.3875,-2.3877,-2.388,-2.3877,-2.388,-2.3883,0,0,0,0,0,-2.339,-2.3427,-2.3432,-2.3446,-2.3524,-2.3576,-2.3586,-2.361,-2.3602,-2.3622,-2.3649,-2.3656,-2.3756,-2.3739,-2.3752,-2.3774,-2.3874,-2.3877,-2.3879,-2.3876,-2.3879,-2.3882,0,0,0,0,0,0,-2.3379,-2.3434,-2.344,-2.3495,-2.3531,-2.3579,-2.3605,-2.3613,-2.3652,-2.365,-2.3678,-2.3689,-2.3738,-2.3761,-2.3741,-2.3824,-2.3814,-2.382,-2.3807,-2.3811,-2.3814,-2.3807,-2.3744,0,0,0,0,0,-2.3383,-2.3421,-2.3468,-2.3511,-2.3529,-2.3564,-2.3588,-2.3603,-2.3641,-2.3656,-2.3687,-2.3723,-2.3763,-2.3788,-2.3827,-2.3881,-2.3891,-2.3902,-2.3905,-2.3907,-2.3911,-2.3941,-2.3946,-2.389,-2.389,-2.389,0,0,-2.3391,-2.3426,-2.3449,-2.351,-2.354,-2.3578,-2.3576,-2.3618,-2.3646,-2.3662,-2.3712,-2.3737,-2.3779,-2.3831,-2.3856,-2.3852,-2.3929,-2.3911,-2.3912,-2.3915,-2.3944,-2.3949,-2.3954,-2.3892,-2.3892,-2.3891,0,0,-2.3426,-2.3457,-2.3497,-2.3526,-2.3571,-2.3594,-2.3604,-2.3651,-2.3668,-2.3719,-2.3731,-2.3766,-2.3834,-2.3863,-2.3887,-2.3934,-2.394,-2.3946,-2.396,-2.3988,-2.3992,-2.3996,-2.4012,-2.4018,-2.395,-2.395,-2.395,0,-2.3431,-2.349,-2.3516,-2.3557,-2.3583,-2.3599,-2.3639,-2.3667,-2.3722,-2.3739,-2.3735,-2.382,-2.385,-2.3909,-2.392,-2.394,-2.3951,-2.394,-2.399,-2.3994,-2.3998,-2.4014,-2.4019,-2.395,-2.395,-2.395,-2.395,0,-2.3493,-2.3534,-2.3561,-2.3614,-2.3644,-2.3684,-2.3715,-2.3741,-2.3754,-2.3777,-2.3829,-2.3865,-2.3912,-2.3927,-2.394,-2.3988,-2.3984,-2.3985,-2.3975,-2.4003,-2.4018,-2.4024,-2.395,-2.395,-2.395,-2.395,0,0,-2.3523,-2.359,-2.3599,-2.3624,-2.3674,-2.3706,-2.3747,-2.3793,-2.3815,-2.3853,-2.3887,-2.3944,-2.3945,-2.3972,-2.3988,-2.4013,-2.4047,-2.401,-2.4012,-2.4015,-2.4101,-2.41,-2.4106,-2.4052,-2.4053,-2.4054,-2.4097,0,-2.3564,-2.3637,-2.3661,-2.3722,-2.376,-2.3777,-2.3812,-2.3847,-2.387,-2.3905,-2.393,-2.397,-2.3968,-2.3984,-2.401,-2.4037,-2.4064,-2.4035,-2.4083,-2.4085,-2.4071,-2.4114,-2.4113,-2.4152,-2.4103,-2.4104,-2.4105,0,-2.362,-2.3659,-2.3724,-2.377,-2.3786,-2.3818,-2.3862,-2.3895,-2.3935,-2.395,-2.398,-2.3995,-2.4038,-2.4026,-2.4085,-2.4065,-2.4086,-2.4103,-2.4105,-2.4109,-2.4096,-2.4119,-2.4165,-2.417,-2.4114,-2.4114,-2.4113,0,-2.3634,-2.3703,-2.375,-2.377,-2.3825,-2.3847,-2.3871,-2.391,-2.3936,-2.3974,-2.3991,-2.4033,-2.4056,-2.4089,-2.4114,-2.4104,-2.4171,-2.4162,-2.4183,-2.4183,-2.4196,-2.4194,-2.4244,-2.4211,-2.4211,-2.4211,-2.4211,0,-2.3676,-2.3715,-2.3757,-2.3786,-2.383,-2.3857,-2.39,-2.3924,-2.3959,-2.3993,-2.401,-2.4041,-2.4073,-2.4109,-2.4129,-2.4174,-2.4184,-2.4197,-2.4202,-2.4195,-2.4193,-2.4209,-2.4206,-2.4213,-2.4212,-2.4212,-2.4212,0,-2.3699,-2.3729,-2.3781,-2.3829,-2.3842,-2.3872,-2.3913,-2.3941,-2.3965,-2.4008,-2.4019,-2.4057,-2.4099,-2.4128,-2.4183,-2.4196,-2.4245,-2.425,-2.4231,-2.4233,-2.4253,-2.425,-2.4314,-2.4323,-2.4285,-2.4285,-2.4285,0,-2.3723,-2.3753,-2.3804,-2.3828,-2.3852,-2.3891,-2.3917,-2.3946,-2.3973,-2.402,-2.4043,-2.4087,-2.4123,-2.419,-2.4222,-2.4263,-2.4269,-2.4288,-2.4275,-2.4267,-2.4268,-2.4265,-2.4268,-2.429,-2.429,-2.429,-2.429,0,-2.3762,-2.3776,-2.3813,-2.3856,-2.3888,-2.3923,-2.3958,-2.3977,-2.4011,-2.4041,-2.4085,-2.4113,-2.4169,-2.4212,-2.4256,-2.4281,-2.4291,-2.4295,-2.4302,-2.4294,-2.4282,-2.4288,-2.4236,-2.4293,-2.4292,-2.4292,-2.4292,-2.4292,-2.3786,-2.3813,-2.3853,-2.3895,-2.3924,-2.3957,-2.3986,-2.4014,-2.4051,-2.4099,-2.4113,-2.4159,-2.4198,-2.4259,-2.4284,-2.4319,-2.4317,-2.4328,-2.433,-2.4332,-2.4331,-2.4277,-2.4328,-2.4328,-2.4328,-2.4328,-2.4328,0,-2.3825,-2.3852,-2.389,-2.3939,-2.3971,-2.3979,-2.4019,-2.4045,-2.4085,-2.4121,-2.4156,-2.4206,-2.4248,-2.4283,-2.4327,-2.4348,-2.4354,-2.4359,-2.4357,-2.4362,-2.4331,-2.432,-2.4353,-2.4353,-2.4353,-2.4353,-2.4353,-2.4353,-2.3849,-2.3895,-2.3914,-2.3975,-2.4002,-2.4046,-2.4068,-2.4098,-2.4127,-2.4182,-2.4217,-2.424,-2.4275,-2.4321,-2.436,-2.4369,-2.4383,-2.4387,-2.4397,-2.4367,-2.4364,-2.4361,-2.4351,-2.439,-2.439,-2.4425,-2.4425,-2.4425]}]]